Weather History for CYYJ - January, 2013

Change the Weather History Date:

Tuesday, January 1, 2013

  Actual Average Record
Temperature  
Mean Temperature 36 °F -  
Max Temperature 40 °F 44 °F 51 °F (1997)
Min Temperature 32 °F 33 °F 23 °F (2011)
Degree Days  
Heating Degree Days 29    
Moisture  
Dew Point 34 °F    
Average Humidity 90    
Maximum Humidity 100    
Minimum Humidity 75    
Precipitation  
Precipitation 0.00 in 0.18 in - ()
Sea Level Pressure  
Sea Level Pressure 30.47 in    
Wind  
Wind Speed 4 mph ()    
Max Wind Speed 9 mph    
Max Gust Speed -    
Visibility 14.9 miles    
Events      
Averages and records for this station are not official NWS values.
T = Trace of Precipitation, MM = Missing Value Source: Averaged Metar Reports

Daily Weather History Graph

Daily Weather History Graph

Search for Another Location

Airport or City:

Trip Planner

Search our weather history database for the weather conditions in past years. The results will help you decide how hot, cold, wet, or windy it might be!

Date:

Astronomy

Jan. 01, 2013 Rise Set
Actual Time 8:06 AM PST 4:28 PM PST
Civil Twilight 7:29 AM PST 5:05 PM PST
Nautical Twilight 6:49 AM PST 5:45 PM PST
Astronomical Twilight 6:11 AM PST 6:23 PM PST
Moon 9:30 PM PST (1/1) 9:58 AM PST (1/1)
Length of Visible Light 9h 36m
Length of Day
8h 22m
Waning Gibbous, 82% of the Moon is Illuminated
Jan 1
Waning Gibbous
Jan 4
Last Quarter
Jan 11
New
Jan 18
First Quarter
Jan 26
Full

Hourly Weather History & Observations

Time (PST) Temp. Windchill Dew Point Humidity Pressure Visibility Wind Dir Wind Speed Gust Speed Precip Events Conditions
12:00 AM 37.4 °F 32.8 °F 35.6 °F 93% 30.48 in 15.0 mi NW 5.8 mph - N/A   Overcast
1:00 AM 37.4 °F 33.8 °F 35.6 °F 93% 30.49 in 15.0 mi WNW 4.6 mph - N/A   Overcast
2:00 AM 37.4 °F 33.8 °F 33.8 °F 87% 30.50 in 12.0 mi West 4.6 mph - N/A   Overcast
3:00 AM 37.4 °F - 33.8 °F 87% 30.50 in 12.0 mi WNW 2.3 mph - N/A   Overcast
3:07 AM 35.6 °F 31.7 °F - N/A% - 12.0 mi WNW 4.6 mph - N/A   Overcast
4:00 AM 36 °F - 35 °F 92% 30.48 in 15 mi West 4.6 mph - -   Overcast
4:00 AM 35.6 °F 31.7 °F 33.8 °F 93% 30.48 in 12.0 mi West 4.6 mph - N/A   Overcast
5:00 AM 37.4 °F 32.8 °F 35.6 °F 93% 30.48 in 12.0 mi WNW 5.8 mph - N/A   Overcast
6:00 AM 37.4 °F 32.8 °F 35.6 °F 93% 30.49 in 12.0 mi West 5.8 mph - N/A   Overcast
7:00 AM 37.4 °F 33.8 °F 35.6 °F 93% 30.49 in 12.0 mi West 4.6 mph - N/A   Overcast
8:00 AM 35.6 °F 30.7 °F 35.6 °F 100% 30.50 in 30.0 mi NW 5.8 mph - N/A   Mostly Cloudy
8:13 AM 35.6 °F 31.7 °F - N/A% - 30.0 mi WNW 4.6 mph - N/A   Mostly Cloudy
8:36 AM 37.4 °F 34.9 °F - N/A% - 30.0 mi North 3.5 mph - N/A   Mostly Cloudy
9:00 AM 37.4 °F 32.8 °F 33.8 °F 87% 30.52 in 30.0 mi North 5.8 mph - N/A   Mostly Cloudy
10:00 AM 38 °F - 35 °F 83% 30.54 in 28 mi North 6.9 mph - -   Mostly Cloudy
10:00 AM 37.4 °F 32.1 °F 35.6 °F 93% 30.54 in 30.0 mi North 6.9 mph - N/A   Mostly Cloudy
11:00 AM 39.2 °F 33.0 °F 35.6 °F 87% 30.52 in 30.0 mi NNE 9.2 mph - N/A   Mostly Cloudy
12:00 PM 39.2 °F 35.0 °F 32.0 °F 75% 30.51 in 30.0 mi NNE 5.8 mph - N/A   Scattered Clouds
1:00 PM 39.2 °F - 32.0 °F 75% 30.50 in 30.0 mi Calm Calm - N/A   Mostly Cloudy
2:00 PM 39.2 °F 37.0 °F 33.8 °F 81% 30.48 in 30.0 mi West 3.5 mph - N/A   Mostly Cloudy
3:00 PM 39.2 °F 35.9 °F 35.6 °F 87% 30.48 in 30.0 mi NW 4.6 mph - N/A   Mostly Cloudy
4:00 PM 39 °F - 35 °F 80% 30.48 in 28 mi NW 4.6 mph - -   Scattered Clouds
4:00 PM 39.2 °F 35.9 °F 35.6 °F 87% 30.48 in 30.0 mi NW 4.6 mph - N/A   Mostly Cloudy
5:00 PM 35.6 °F 30.7 °F 35.6 °F 100% 30.45 in 30.0 mi WNW 5.8 mph - N/A   Mostly Cloudy
6:00 PM 35.6 °F - 33.8 °F 93% 30.44 in 30.0 mi WNW 2.3 mph - N/A   Mostly Cloudy
6:27 PM 35.6 °F - - N/A% - 30.0 mi NNW 2.3 mph - N/A   Mostly Cloudy
7:00 PM 33.8 °F 30.8 °F 32.0 °F 93% 30.43 in 30.0 mi West 3.5 mph - N/A   Mostly Cloudy
8:00 PM 32.0 °F 28.7 °F 32.0 °F 100% 30.42 in 30.0 mi West 3.5 mph - N/A   Mostly Cloudy
9:00 PM 33.8 °F 29.6 °F 32.0 °F 93% 30.41 in 20.0 mi WNW 4.6 mph - N/A   Scattered Clouds
10:00 PM 34 °F - 33 °F 93% 30.40 in 19 mi West 4.6 mph - -   Scattered Clouds
10:00 PM 33.8 °F 30.8 °F 32.0 °F 93% 30.40 in 20.0 mi West 3.5 mph - N/A   Mostly Cloudy
11:00 PM 32.0 °F 27.5 °F 32.0 °F 100% 30.40 in 20.0 mi WNW 4.6 mph - N/A   Scattered Clouds